Showing default

FLYING LAPTOP, 42831

Orbit data source: Space-Track

FLYING LAPTOP, 42831 is a payload satellite owned by IRS Stuttgart (DE) in SSO that was launched on Fri, 14 Jul 2017 UTC via a SOYUZ-2-1A launch vehicle from the Tyuratam Missile And Space Complex (TTMTR). Payload-class satellites include a variety of spacecraft equipped with specific instruments for various scientific and technological missions. These include communications satellites like Starlink; space stations such as the ISS; scientific satellites like the Hubble; Earth observation satellites from companies like Planet Labs, Umbra, and HawkEye 360; GPS; miniature CubeSats for education and research; and military/defense satellites.

Loading next visibility...
Identifier
42831, 2017-042G
Orbit
SSO
Country
Flag of DEDE / GER
Related business
Manufacturer
IRS Stuttgart
Mission
Operational Amateur Technology
Bus & Motor
FLP, Unknown motor
Mass
120 kg wet, 120 kg dry
Launch date (UTC)
2017-07-14 (8 years ago)
Launch vehicle
SOYUZ-2-1A
Launch site
Tyuratam Missile And Space Complex (TTMTR)
Object type
Payload
Rocket body
Debris
Shape & HBR
Box + 2 Pan, 1.1 m
Radar Cross Section
0.788 m², Medium (>0.1 m² and < 1m²)

Expand to show TLE details & history
Last TLE update: 13 hours ago

TLE from 13 hours ago
0 FLYING LAPTOP
1 42831U 17042G   25260.32015017  .00002165  00000-0  18240-3 0  9998
2 42831  97.4151  63.0017 0010680 336.4995  23.5739 14.99144137445542
Epoch: 2025-09-17T07:41Z
TLE epoch observation values (Epoch: 2025-09-17T07:41:00.974Z)
Latitude
-0.00008°
Longitude
-48.75014°
Altitude
565.8 km
Speed
7.582 km/s
True Right ascension
04h 12m 00s
True Declination
0° 00' 00"
Sunlit
Object was in daylight at epoch
Visualization orbit readout
Latitude
Unknown
Longitude
Unknown
Altitude
Unknown
Speed
Unknown
Apparent Right ascension
Unknown
Apparent Declination
Unknown
Sunlit
N/A
Visualization observer readout
Local Sidereal Time
12:59:50
Azimuth
Unknown
Elevation
Unknown
Doppler factor
Unknown
Orbital elements
Apogee altitude
573.95 km
Perigee altitude
559.117 km
Semi-major axis
6,944.67 km
Eccentricity
0.00107
Inclination
97.4151°
RAAN
63.0017°
Arg. of periapsis
336.4995°
True anomaly
23.62291°
Mean anomaly
23.5739°
Eccentric anomaly
23.5984°
Mean motion
3.7503 °/min
Orbital period
95.99 mins
BSTAR
0.0001824
Loading maneuver chart data...
Computing Atmospheric mass density...

Documentation

Showing up to 5 results
|